Location: American Medical Response
(33.3472°N, 96.5511°W)
Time: 19:03:36
(UTC+00:00)

H-2A R/B - Pass Details

Date: 11 July 2022
Orbit: 577 x 651 km, 98.5° (Epoch: 07 August)

Event Time Altitude Azimuth Distance (km) Brightness Sun altitude
Rises 03:38:32 0° 355° (N) 2,965 6.4 -20.9°
Reaches altitude 10° 03:41:12 10° 339° (NNW) 2,057 5.7 -21.3°
Maximum altitude 03:44:30 21° 291° (WNW) 1,479 4.7 -21.7°
Drops below altitude 10° 03:47:48 10° 244° (WSW) 2,052 4.9 -22.2°
Sets 03:50:27 0° 228° (SW) 2,956 5.5 -22.5°
